Manila, Philippines

11:27 PM +08 on September 22, 2018 (GMT +0800)
Ninoy Aquino International

Weather History for RPLL - March, 2018

Change the Weather History Date:

Wednesday, March 14, 2018

  Actual Average Record
Temperature  
Mean Temperature 84 °F -  
Max Temperature 91 °F 89 °F 93 °F (1998)
Min Temperature 77 °F 75 °F 69 °F (2015)
Cooling Degree Days 19    
Growing Degree Days 34 (Base 50)    
Moisture  
Dew Point 68 °F    
Average Humidity 62    
Maximum Humidity 89    
Minimum Humidity 38    
Precipitation  
Precipitation 0.00 in 0.01 in - ()
Sea Level Pressure  
Sea Level Pressure 29.90 in    
Wind  
Wind Speed 6 mph ()    
Max Wind Speed 14 mph    
Max Gust Speed -    
Visibility 6.2 miles    
Events      
Averages and records for this station are not official NWS values.
T = Trace of Precipitation, MM = Missing Value Source: Averaged Metar Reports

Daily Weather History Graph

Daily Weather History Graph

Search for Another Location

Airport or City:

Astronomy

Mar. 14, 2018 Rise Set
Actual Time 6:04 AM +08 6:06 PM +08
Civil Twilight 5:43 AM +08 6:27 PM +08
Nautical Twilight 5:18 AM +08 6:52 PM +08
Astronomical Twilight 4:53 AM +08 7:17 PM +08
Moon 3:40 AM +08 (3/14) 3:26 PM +08 (3/14)
Length of Visible Light 12h 44m
Length of Day
12h 01m
Waning Crescent, 11% of the Moon is Illuminated
Mar 14
Waning Crescent
Mar 17
New
Mar 24
First Quarter
Mar 31
Full
Apr 8
Last Quarter

Hourly Weather History & Observations

Time (+08) Temp. Heat Index Dew Point Humidity Pressure Visibility Wind Dir Wind Speed Gust Speed Precip Events Conditions
12:00 AM 78.8 °F - 71.6 °F 78% 29.92 in 6.2 mi ESE 8.1 mph - N/A   Partly Cloudy
1:00 AM 78.8 °F - 71.6 °F 78% 29.89 in 6.2 mi ESE 6.9 mph - N/A   Partly Cloudy
2:00 AM 78 °F - 71 °F 74% 29.88 in 6 mi East 4.5 mph - -   Haze
2:00 AM 77.0 °F - 71.6 °F 83% 29.89 in 6.2 mi East 4.6 mph - N/A   Partly Cloudy
3:00 AM 77.0 °F - 71.6 °F 83% 29.86 in 6.2 mi SSE 3.5 mph - N/A   Partly Cloudy
4:00 AM 77.0 °F - 71.6 °F 83% 29.86 in 6.2 mi Calm Calm - N/A   Partly Cloudy
5:00 AM 77 °F - 72 °F 82% 29.88 in 6 mi ESE 4.5 mph - -   Haze
5:00 AM 77.0 °F - 73.4 °F 89% 29.89 in 6.2 mi ESE 4.6 mph - N/A   Partly Cloudy
6:00 AM 77.0 °F - 73.4 °F 89% 29.89 in 6.2 mi East 5.8 mph - N/A   Partly Cloudy
7:00 AM 78.8 °F - 73.4 °F 83% 29.92 in 6.2 mi East 5.8 mph - N/A   Partly Cloudy
8:00 AM 81 °F - 69 °F 60% 29.95 in 6 mi East 4.5 mph - -   Haze
8:00 AM 80.6 °F 83.9 °F 69.8 °F 70% 29.95 in 6.2 mi East 4.6 mph - N/A   Partly Cloudy
9:00 AM 84.2 °F 87.3 °F 68.0 °F 58% 29.95 in 6.2 mi ESE 8.1 mph - N/A   Partly Cloudy
10:00 AM 86.0 °F 90.4 °F 69.8 °F 58% 29.95 in 6.2 mi ESE 10.4 mph - N/A   Partly Cloudy
11:00 AM 87 °F - 68 °F 44% 29.94 in 6 mi ESE 8.9 mph - -   Haze
11:00 AM 87.8 °F 91.4 °F 68.0 °F 52% 29.92 in 6.2 mi ESE 10.4 mph - N/A   Partly Cloudy
12:00 PM 89.6 °F 93.4 °F 68.0 °F 49% 29.92 in 6.2 mi SE 11.5 mph - N/A   Partly Cloudy
1:00 PM 91.4 °F 95.4 °F 68.0 °F 46% 29.86 in 6.2 mi SE 13.8 mph - N/A   Partly Cloudy
2:00 PM 89 °F - 67 °F 38% 29.86 in 6 mi SE 13.4 mph - -   Haze
2:00 PM 89.6 °F 92.2 °F 66.2 °F 46% 29.86 in 6.2 mi SE 13.8 mph - N/A   Partly Cloudy
3:00 PM 89.6 °F 93.4 °F 68.0 °F 49% 29.83 in 6.2 mi SE 11.5 mph - N/A   Partly Cloudy
4:00 PM 87.8 °F 90.4 °F 66.2 °F 49% 29.83 in 6.2 mi SE 11.5 mph - N/A   Scattered Clouds
5:00 PM 86 °F - 66 °F 42% 29.86 in 6 mi SE 8.9 mph - -   Haze
5:00 PM 86.0 °F 88.2 °F 66.2 °F 51% 29.86 in 6.2 mi SE 10.4 mph - N/A   Scattered Clouds
6:00 PM 84.2 °F 85.6 °F 64.4 °F 51% 29.86 in 6.2 mi ESE 11.5 mph - N/A   Partly Cloudy
7:00 PM 82.4 °F 83.4 °F 62.6 °F 51% 29.89 in 6.2 mi ESE 9.2 mph - N/A   Partly Cloudy
8:00 PM 81 °F - 64 °F 47% 29.90 in 6 mi East 6.7 mph - -   Haze
8:00 PM 80.6 °F 82.3 °F 64.4 °F 58% 29.89 in 6.2 mi East 6.9 mph - N/A   Partly Cloudy
9:00 PM 80.6 °F 82.3 °F 64.4 °F 58% 29.92 in 6.2 mi ESE 4.6 mph - N/A   Partly Cloudy
10:00 PM 78.8 °F - 64.4 °F 61% 29.92 in 6.2 mi SE 4.6 mph - N/A   Partly Cloudy
11:00 PM 79 °F - 69 °F 63% 29.93 in 6 mi ESE 6.7 mph - -   Haze
11:00 PM 78.8 °F - 68.0 °F 69% 29.92 in 6.2 mi ESE 6.9 mph - N/A   Partly Cloudy